JIGSW01 EGVN-EGVN

Flight info

Callsign JIGSW01
Flight time 0h 11m
Altitude 11000
Route BZN DAVENTRY/RC MAM EGSH DAVENTRY/RC BZN
Aircraft A400/H-SGHIRWXY/LB1

Departure

Time 2026-05-04 20:53
Airport RAF Brize Norton (EGVN)

Arrival

Time 2026-05-04 21:05
Airport RAF Brize Norton (EGVN)
Time Latitude Longitude Altitude Speed Heading
2026-05-04 20:30 52.89440 0.83206 969 ft 175 kts 134°
2026-05-04 20:31 52.88367 0.83764 918 ft 163 kts 194°
2026-05-04 20:31 52.87464 0.82919 848 ft 147 kts 229°
2026-05-04 20:31 52.86854 0.81556 861 ft 141 kts 232°
2026-05-04 20:31 52.86273 0.80333 689 ft 134 kts 233°
2026-05-04 20:32 52.85722 0.79100 455 ft 134 kts 233°
2026-05-04 20:32 52.85179 0.77879 225 ft 128 kts 233°
2026-05-04 20:32 52.84858 0.77164 228 ft 20 kts 233°
2026-05-04 20:32 52.84851 0.77147 228 ft 0 kts 233°
2026-05-04 20:33 52.84850 0.77146 230 ft 1 kts 233°
2026-05-04 20:34 52.84852 0.77150 228 ft 0 kts 233°
2026-05-04 20:34 52.84853 0.77152 228 ft 0 kts 232°
2026-05-04 20:34 52.84797 0.77030 229 ft 57 kts 233°
2026-05-04 20:35 52.84356 0.76044 313 ft 150 kts 234°
2026-05-04 20:35 52.83651 0.74479 770 ft 187 kts 232°
2026-05-04 20:35 52.82779 0.72640 1369 ft 219 kts 231°
2026-05-04 20:35 52.81542 0.70827 1860 ft 253 kts 218°
2026-05-04 20:36 52.80041 0.69191 2836 ft 261 kts 211°
2026-05-04 20:36 52.78437 0.67719 3963 ft 265 kts 208°
2026-05-04 20:36 52.76807 0.66343 5158 ft 269 kts 208°
2026-05-04 20:36 52.75131 0.64967 6484 ft 267 kts 209°
2026-05-04 20:37 52.73470 0.63597 7726 ft 268 kts 209°
2026-05-04 20:37 52.71790 0.62188 8851 ft 274 kts 209°
2026-05-04 20:37 52.70066 0.60718 9636 ft 281 kts 209°
2026-05-04 20:37 52.68317 0.59210 9992 ft 285 kts 209°
2026-05-04 20:38 52.66586 0.57615 10052 ft 285 kts 215°
2026-05-04 20:38 52.65090 0.55501 10047 ft 283 kts 230°
2026-05-04 20:38 52.63986 0.52879 10049 ft 282 kts 240°
2026-05-04 20:38 52.63075 0.50014 10047 ft 282 kts 245°
2026-05-04 20:39 52.62282 0.47060 10048 ft 282 kts 248°
2026-05-04 20:39 52.61547 0.44067 10048 ft 282 kts 249°
2026-05-04 20:39 52.60829 0.41058 10049 ft 282 kts 249°
2026-05-04 20:39 52.60109 0.38054 10048 ft 282 kts 249°
2026-05-04 20:40 52.59384 0.35084 10049 ft 282 kts 249°
2026-05-04 20:40 52.58639 0.32087 10050 ft 282 kts 248°
2026-05-04 20:40 52.57890 0.29113 10047 ft 282 kts 248°
2026-05-04 20:40 52.57135 0.26144 10048 ft 282 kts 248°
2026-05-04 20:41 52.56374 0.23166 10047 ft 282 kts 248°
2026-05-04 20:41 52.55613 0.20195 10051 ft 282 kts 248°
2026-05-04 20:41 52.54850 0.17221 10052 ft 282 kts 248°
2026-05-04 20:41 52.54096 0.14285 10046 ft 282 kts 248°
2026-05-04 20:42 52.53333 0.11312 10048 ft 282 kts 248°
2026-05-04 20:42 52.52569 0.08343 10047 ft 282 kts 248°
2026-05-04 20:42 52.51805 0.05373 10046 ft 283 kts 248°
2026-05-04 20:42 52.51038 0.02394 10052 ft 283 kts 248°
2026-05-04 20:43 52.50269 -0.00584 10054 ft 283 kts 248°
2026-05-04 20:43 52.49507 -0.03537 10047 ft 283 kts 248°
2026-05-04 20:43 52.48738 -0.06509 10044 ft 283 kts 248°
2026-05-04 20:43 52.47957 -0.09528 10054 ft 299 kts 248°
2026-05-04 20:44 52.47105 -0.12824 10059 ft 324 kts 248°
2026-05-04 20:44 52.46208 -0.16290 10054 ft 331 kts 248°
2026-05-04 20:44 52.45304 -0.19773 10049 ft 333 kts 247°
2026-05-04 20:44 52.44404 -0.23236 10051 ft 333 kts 247°
2026-05-04 20:45 52.43490 -0.26739 10046 ft 334 kts 247°
2026-05-04 20:45 52.42574 -0.30246 10049 ft 334 kts 247°
2026-05-04 20:45 52.41660 -0.33737 10044 ft 334 kts 247°
2026-05-04 20:45 52.40744 -0.37229 10046 ft 334 kts 247°
2026-05-04 20:46 52.39828 -0.40717 10045 ft 334 kts 247°
2026-05-04 20:46 52.38909 -0.44213 10047 ft 334 kts 247°
2026-05-04 20:46 52.37984 -0.47723 10044 ft 334 kts 247°
2026-05-04 20:46 52.37075 -0.51169 10049 ft 334 kts 247°
2026-05-04 20:47 52.36128 -0.54641 10044 ft 334 kts 245°
2026-05-04 20:47 52.35110 -0.58049 10047 ft 334 kts 244°
2026-05-04 20:47 52.34041 -0.61436 10041 ft 334 kts 243°
2026-05-04 20:47 52.32958 -0.64794 10041 ft 334 kts 243°
2026-05-04 20:48 52.31865 -0.68160 10047 ft 334 kts 243°
2026-05-04 20:48 52.30792 -0.71469 10042 ft 334 kts 243°
2026-05-04 20:48 52.29706 -0.74831 10044 ft 334 kts 243°
2026-05-04 20:48 52.28626 -0.78192 10044 ft 334 kts 243°
2026-05-04 20:49 52.27545 -0.81558 10037 ft 333 kts 243°
2026-05-04 20:49 52.26470 -0.84912 10038 ft 333 kts 243°
2026-05-04 20:49 52.25398 -0.88254 10045 ft 333 kts 243°
2026-05-04 20:49 52.24324 -0.91597 10041 ft 333 kts 243°
2026-05-04 20:50 52.23250 -0.94936 10042 ft 332 kts 243°
2026-05-04 20:50 52.22170 -0.98286 10043 ft 332 kts 243°
2026-05-04 20:50 52.21107 -1.01581 10045 ft 332 kts 243°
2026-05-04 20:50 52.20030 -1.04916 10042 ft 332 kts 243°
2026-05-04 20:51 52.18950 -1.08255 10045 ft 332 kts 243°
2026-05-04 20:51 52.17869 -1.11589 10045 ft 332 kts 243°
2026-05-04 20:51 52.16791 -1.14911 10046 ft 332 kts 243°
2026-05-04 20:51 52.15708 -1.18242 10043 ft 332 kts 243°
2026-05-04 20:52 52.14640 -1.21526 10044 ft 332 kts 243°
2026-05-04 20:52 52.13558 -1.24846 10048 ft 332 kts 243°
2026-05-04 20:52 52.12474 -1.28169 10046 ft 332 kts 242°
2026-05-04 20:52 52.11392 -1.31481 10050 ft 332 kts 242°
2026-05-04 20:53 52.10307 -1.34798 10048 ft 332 kts 242°
2026-05-04 20:53 52.09223 -1.38108 10047 ft 332 kts 242°
2026-05-04 20:53 52.08156 -1.41360 10041 ft 312 kts 242°
2026-05-04 20:53 52.07184 -1.44311 10037 ft 290 kts 242°
2026-05-04 20:54 52.06243 -1.47165 10039 ft 283 kts 242°
2026-05-04 20:54 52.05316 -1.49971 10043 ft 282 kts 242°
2026-05-04 20:54 52.04386 -1.52789 10042 ft 282 kts 242°
2026-05-04 20:54 52.03462 -1.55585 10036 ft 282 kts 242°
2026-05-04 20:55 52.02535 -1.58392 10039 ft 281 kts 242°
2026-05-04 20:55 52.01611 -1.61186 10040 ft 281 kts 242°
2026-05-04 20:55 52.00687 -1.63979 10040 ft 281 kts 242°
2026-05-04 20:55 51.99774 -1.66733 10040 ft 281 kts 242°
2026-05-04 20:56 51.98845 -1.69532 10040 ft 281 kts 242°
2026-05-04 20:56 51.97919 -1.72320 10037 ft 281 kts 242°
2026-05-04 20:56 51.96921 -1.75057 10036 ft 281 kts 234°
2026-05-04 20:56 51.95593 -1.77371 10049 ft 282 kts 220°
2026-05-04 20:57 51.93878 -1.78804 10048 ft 284 kts 195°
2026-05-04 20:57 51.91910 -1.79121 9998 ft 280 kts 182°
2026-05-04 20:57 51.90061 -1.79087 9303 ft 254 kts 180°
2026-05-04 20:57 51.88310 -1.79008 7883 ft 254 kts 180°
2026-05-04 20:58 51.86515 -1.78928 6220 ft 262 kts 180°
2026-05-04 20:58 51.84678 -1.79029 4586 ft 265 kts 191°
2026-05-04 20:58 51.82901 -1.79822 3495 ft 265 kts 199°
2026-05-04 20:58 51.81738 -1.80467 3105 ft 262 kts 200°
2026-05-04 20:59 51.80100 -1.81414 2579 ft 236 kts 200°
2026-05-04 20:59 51.78668 -1.82279 2316 ft 207 kts 200°
2026-05-04 20:59 51.77355 -1.83117 2298 ft 201 kts 200°
2026-05-04 20:59 51.76043 -1.83739 2294 ft 195 kts 180°
2026-05-04 21:00 51.74714 -1.83459 2295 ft 192 kts 163°
2026-05-04 21:00 51.73433 -1.82891 2297 ft 190 kts 161°
2026-05-04 21:00 51.72260 -1.82050 2291 ft 184 kts 135°
2026-05-04 21:00 51.71598 -1.80383 2285 ft 168 kts 104°
2026-05-04 21:01 51.71483 -1.78581 2294 ft 159 kts 87°
2026-05-04 21:01 51.71613 -1.76910 2275 ft 142 kts 75°
2026-05-04 21:01 51.71850 -1.75468 2271 ft 128 kts 72°
2026-05-04 21:01 51.72092 -1.74096 2211 ft 126 kts 71°
2026-05-04 21:02 51.72340 -1.72747 2037 ft 124 kts 71°
2026-05-04 21:02 51.72584 -1.71412 1844 ft 123 kts 72°
2026-05-04 21:02 51.72825 -1.70096 1667 ft 121 kts 72°
2026-05-04 21:02 51.73066 -1.68786 1481 ft 121 kts 72°
2026-05-04 21:03 51.73307 -1.67476 1308 ft 121 kts 71°
2026-05-04 21:03 51.73552 -1.66160 1083 ft 124 kts 72°
2026-05-04 21:03 51.73792 -1.64832 855 ft 126 kts 71°
2026-05-04 21:03 51.74042 -1.63479 671 ft 125 kts 72°
2026-05-04 21:04 51.74293 -1.62120 531 ft 127 kts 72°
2026-05-04 21:04 51.74542 -1.60757 359 ft 127 kts 71°
2026-05-04 21:04 51.74791 -1.59438 273 ft 108 kts 72°
2026-05-04 21:04 51.74945 -1.58593 275 ft 52 kts 73°
2026-05-04 21:05 51.74989 -1.58328 274 ft 7 kts 74°
2026-05-04 21:05 51.75017 -1.58201 273 ft 18 kts 65°
2026-05-04 21:05 51.75128 -1.58068 274 ft 20 kts 28°
2026-05-04 21:05 51.75243 -1.57969 276 ft 17 kts 27°
2026-05-04 21:06 51.75347 -1.57881 274 ft 17 kts 28°
2026-05-04 21:06 51.75462 -1.57782 273 ft 20 kts 28°
2026-05-04 21:06 51.75588 -1.57683 273 ft 20 kts 21°
2026-05-04 21:06 51.75725 -1.57609 273 ft 21 kts 18°
2026-05-04 21:07 51.75866 -1.57535 273 ft 21 kts 18°
2026-05-04 21:07 51.75935 -1.57420 273 ft 14 kts 96°
2026-05-04 21:07 51.75918 -1.57247 273 ft 17 kts 105°
2026-05-04 21:07 51.75881 -1.57100 273 ft 10 kts 125°
2026-05-04 21:08 51.75817 -1.57101 273 ft 14 kts 198°
2026-05-04 21:08 51.75744 -1.57148 273 ft 11 kts 221°
2026-05-04 21:08 51.75750 -1.57256 273 ft 6 kts 288°
2026-05-04 21:08 51.75750 -1.57258 273 ft 0 kts 288°